Location: Newark
(50.4348°N, 30.5552°E)
Time: 12:58:54
(UTC+00:00)

Envisat - Pass Details

Date: 09 December 2019
Orbit: 764 x 766 km, 98.1° (Epoch: 18 January)

Event Time Altitude Azimuth Distance (km) Brightness Sun altitude
Rises 03:35:19 0° 26° (NNE) 3,246 6.4 -19.6°
Reaches altitude 10° 03:38:21 10° 44° (NE) 2,313 5.9 -19.1°
Maximum altitude 03:41:53 19° 89° (E) 1,782 5.8 -18.6°
Drops below altitude 10° 03:45:23 10° 133° (SE) 2,300 6.4 -18.1°
Sets 03:48:22 0° 151° (SSE) 3,220 6.9 -17.6°
